CHUBUSAT 3

Satellite information

Favourite Embed

Satellite Type and Status

PAYLOADIN ORBIT

Key statistics

Satellite CHUBUSAT 3 at a glance.

Uptime

3492

Days in orbit

Revolutions

≈ 15.2

Per day

Orbit

LEO

Low Earth Orbit

Inclination

31.0

Latest

Satellite identification and parameters

Extended collection of information and parameters for CHUBUSAT 3.

Object identification

Identified? True

Debris? False

Object name: CHUBUSAT 3

International designator: 2016-012C

Object number (NORAD): 41339

Object ID (CCSDS): 41339

Country: JAPAN (JPN)

Current information (Y/N): Y

RCS size: MEDIUM

Orbital parameters

Period: 95.048 minutes

Inclination: 31.0067 deg

SMA: 6899.03 km

Apoapsis: 527.946 km

Periapsis: 513.843 km

RAAN: 7.7634 deg

Eccentricy: 0.00102213

Argument of periapsis: 83.7512 deg

Mean anomaly: 276.4291 deg

Mean motion: 15.15028292 rev/day

Mean motion (dot): 0.00005623 rev/day2

B* drag term: 0.00028783431 1/REarth

Two-line elements (TLE)

Creation date: Sept. 8, 2025, 6:18 p.m.

Reference frame: TEME

Reference center: EARTH

Epoch: Sept. 8, 2025, 2:10 p.m. UTC

TLE line 0: 0 CHUBUSAT 3

TLE line 1: 1 41339U 16012C 25251.59089705 .00005623 00000-0 28783-3 0 9995

TLE line 2: 2 41339 31.0067 7.7634 0010221 83.7512 276.4291 15.15028292525400

Live tracking on map

Real-time ground track for satellite CHUBUSAT 3.

In-orbit conjunctions

There are no conjunctions computed for CHUBUSAT 3, at the moment. Check back to stay up to date, as we update our databases every day.

Go to all conjunctions

Associated space launch

Astro-H is the 6th satellite in a series of X-ray telescopes by JAXA and ISAS. Its 4 instruments on board will cover the X-ray and Gamma ray regions. This region consists of photons with energy ranging from 0.3-600keV, and the telescope will provide the highest resolution ever achieved of 3-10 keV bands. The craft weighs 2.7 tonnes and will be placed into a circular orbit 575km above the ground, with an inclination of 31 degrees.

CHUBUSAT 3 was lifted into orbit during the mission ‘H-IIA 202 | Astro-H (Hitomi)’, on board a H-IIA space rocket.

The launch took place on Feb. 17, 2016, 8:45 a.m. from Yoshinobu Launch Complex LP-1.

For more information about the launch, click the button.

Launch to space H-IIA 202 | Astro-H (Hitomi)
H-IIA 202 | Astro-H (Hitomi)

Agency: N/A

Status: Launch Successful

Launch date: Feb. 17, 2016, 8:45 a.m. UTC

Rocket: H-IIA

Launch pad: Yoshinobu Launch Complex LP-1

Location: Tanegashima Space Center, Japan

...

Latest news about this satellite

There are no fresh news available about this satellite. Check back as we update our databases every day.


Newsletter sign-up

Weekly statistics, charts and insights to help you stay on top of the space industry.